Bagotville, Quebec

1:35 PM EST on December 07, 2016 (GMT -0500)
Bagotville

Weather History for CYBG - July, 2013

Change the Weather History Date:

Saturday, July 13, 2013

  Actual Average Record
Temperature  
Mean Temperature 69 °F -  
Max Temperature 88 °F 71 °F 88 °F (2013)
Min Temperature 50 °F 54 °F 50 °F (2013)
Cooling Degree Days 4    
Growing Degree Days 19 (Base 50)    
Moisture  
Dew Point 53 °F    
Average Humidity 54    
Maximum Humidity 94    
Minimum Humidity 22    
Precipitation  
Precipitation 0.00 in - - ()
Sea Level Pressure  
Sea Level Pressure 30.22 in    
Wind  
Wind Speed 4 mph ()    
Max Wind Speed 10 mph    
Max Gust Speed -    
Visibility 15.6 miles    
Events Fog    
Averages and records for this station are not official NWS values.
T = Trace of Precipitation, MM = Missing Value Source: Averaged Metar Reports

Daily Weather History Graph

Daily Weather History Graph

Search for Another Location

Airport or City:

Trip Planner

Search our weather history database for the weather conditions in past years. The results will help you decide how hot, cold, wet, or windy it might be!

Date:

Astronomy

Jul. 13, 2013 Rise Set
Actual Time 4:56 AM EDT 8:41 PM EDT
Civil Twilight 4:16 AM EDT 9:21 PM EDT
Nautical Twilight 3:22 AM EDT 10:15 PM EDT
Astronomical Twilight 2:02 AM EDT 11:34 PM EDT
Moon 10:39 AM EDT (7/13) 10:49 PM EDT (7/13)
Length of Visible Light 17h 04m
Length of Day
15h 45m
Waxing Crescent, 25% of the Moon is Illuminated
Jul 13
Waxing Crescent
Jul 15
First Quarter
Jul 22
Full
Jul 29
Last Quarter
Aug 6
New

Hourly Weather History & Observations

Time (EDT) Temp. Heat Index Dew Point Humidity Pressure Visibility Wind Dir Wind Speed Gust Speed Precip Events Conditions
12:00 AM 62.6 °F - 55.4 °F 77% 30.22 in 15.0 mi South 5.8 mph - N/A   Clear
1:00 AM 62.6 °F - 55.4 °F 77% 30.21 in 15.0 mi ESE 3.5 mph - N/A   Clear
2:00 AM 59 °F - 54 °F 79% 30.21 in 15 mi SE 5.8 mph - -  
2:00 AM 59.0 °F - 53.6 °F 82% 30.21 in 15.0 mi SE 4.6 mph - N/A   Clear
3:00 AM 59.0 °F - 57.2 °F 94% 30.23 in 15.0 mi NE 3.5 mph - N/A   Partly Cloudy
4:00 AM 55.4 °F - 51.8 °F 88% 30.25 in 15.0 mi South 2.3 mph - N/A Fog Shallow Fog
5:00 AM 51.8 °F - 50.0 °F 94% 30.27 in 25.0 mi SSW 3.5 mph - N/A Fog Shallow Fog
6:00 AM 53.6 °F - 50.0 °F 88% 30.27 in 25.0 mi SSW 2.3 mph - N/A   Partly Cloudy
7:00 AM 59.0 °F - 51.8 °F 77% 30.28 in 25.0 mi Calm Calm - N/A   Scattered Clouds
8:00 AM 64 °F - 53 °F 59% 30.29 in 25 mi ESE 6.7 mph - -   Clear
8:00 AM 64.4 °F - 53.6 °F 68% 30.29 in 25.0 mi SE 3.5 mph - N/A   Scattered Clouds
9:00 AM 69.8 °F - 53.6 °F 56% 30.28 in 25.0 mi ESE 4.6 mph - N/A   Mostly Cloudy
10:00 AM 73.4 °F - 53.6 °F 50% 30.28 in 25.0 mi ENE 2.3 mph - N/A   Mostly Cloudy
11:00 AM 77.0 °F - 55.4 °F 47% 30.26 in 25.0 mi North 3.5 mph - N/A   Mostly Cloudy
12:00 PM 78.8 °F - 59.0 °F 51% 30.24 in 25.0 mi ENE 4.6 mph - N/A   Mostly Cloudy
1:00 PM 80.6 °F 80.5 °F 55.4 °F 42% 30.22 in 25.0 mi NNE 5.8 mph - N/A   Mostly Cloudy
2:00 PM 82 °F - 51 °F 24% 30.21 in 25 mi North 5.8 mph - -   Clear
2:00 PM 82.4 °F - 51.8 °F 35% 30.21 in 25.0 mi NNW 3.5 mph - N/A   Mostly Cloudy
3:00 PM 86.0 °F - 51.8 °F 31% 30.19 in 25.0 mi NW 6.9 mph - N/A   Mostly Cloudy
4:00 PM 86.0 °F - 50.0 °F 29% 30.18 in 25.0 mi WNW 6.9 mph - N/A   Mostly Cloudy
5:00 PM 87.8 °F - 48.2 °F 25% 30.17 in 25.0 mi NW 8.1 mph - N/A   Mostly Cloudy
6:00 PM 87.8 °F - 50.0 °F 27% 30.17 in 25.0 mi NW 4.6 mph - N/A   Mostly Cloudy
7:00 PM 86.0 °F 84.2 °F 53.6 °F 33% 30.18 in 25.0 mi West 8.1 mph - N/A   Mostly Cloudy
8:00 PM 82 °F - 49 °F 22% 30.18 in 25 mi WSW 6.9 mph - -   Clear
8:00 PM 82.4 °F - 50.0 °F 32% 30.18 in 25.0 mi SW 5.8 mph - N/A   Mostly Cloudy
9:00 PM 78.8 °F - 50.0 °F 36% 30.19 in 20.0 mi SW 5.8 mph - N/A   Mostly Cloudy
10:00 PM 75.2 °F - 51.8 °F 44% 30.19 in 15.0 mi SW 4.6 mph - N/A   Mostly Cloudy
11:00 PM 73.4 °F - 51.8 °F 47% 30.19 in 15.0 mi SW 10.4 mph - N/A   Mostly Cloudy